Regional Weather Roundup
Issued by NWS

Home | Current Version | Previous Version | Graphics & Text | Print | Product List | Glossary On
Versions: 1 2 3 4 5 6 7 8 9 10 11 12 13 14 15 16 17 18 19 20 21 22 23 24 25 26 27 28 29 30 31 32 33 34 35 36 37 38 39 40 41 42 43 44 45 46 47 48 49 50
000
ASUS45 KBOU 250607
RWRCO

WEATHER ROUNDUP FOR COLORADO
NATIONAL WEATHER SERVICE DENVER/BOULDER CO
1200 AM MDT MON MAY 25 2015

NOTE: "FAIR" INDICATES FEW OR NO CLOUDS BELOW 12000 FEET WITH NO
SIGNIFICANT WEATHER AND/OR OBSTRUCTIONS TO VISIBILITY.

COZ001>005-013-030-031-250700-
...NORTHWEST COLORADO...

CITY           SKY/WX    TMP DP  RH WIND       PRES   REMARKS
CRAIG          CLOUDY    44  40  85 W3        29.97S
HAYDEN         CLOUDY    43  36  75 CALM      29.97F
MEEKER         CLOUDY    43  40  89 NE3       29.98S
MOUNT WERNER   NOT AVBL
STEAMBOAT SPGS CLOUDY    39  38  97 CALM      29.98F
WALDEN         CLOUDY    36  32  87 SE3       29.98S
$$

COZ006>008-011-250700-
...WEST CENTRAL VALLEYS...

CITY           SKY/WX    TMP DP  RH WIND       PRES   REMARKS
GRAND JUNCTION RAIN      49  46  90 E6        29.95R FOG
MONTROSE       MOCLDY    47  45  93 S6        29.97S
EAGLE          MOCLDY    43  37  81 NW3       30.00R
RIFLE          CLOUDY    46  42  86 E3        29.97F
DELTA          CLOUDY    51  45  79 MISG      29.95R
NUCLA          MOCLDY    48  37  66 E8        29.98S
$$

COZ017>023-064>068-250700-
...SOUTHWEST COLORADO...

CITY           SKY/WX    TMP DP  RH WIND       PRES   REMARKS
DURANGO        PTCLDY    44  36  73 NW3       29.99R
CORTEZ         CLOUDY    45  41  86 NE6       29.98R
PAGOSA SPRINGS PTCLDY    38  38 100 CALM      30.04R
TELLURIDE      CLOUDY    38  36  91 SE3       30.08S
WOLF CREEK PAS NOT AVBL
$$

COZ009-010-012-014-032>034-037-058>063-250700-
...CENTRAL COLORADO...

CITY           SKY/WX    TMP DP  RH WIND       PRES   REMARKS
ASPEN          LGT RAIN  35  33  92 S3        30.00S
BUENA VISTA    CLOUDY    43  34  70 W10       29.97S
COPPER MTN     SNOW      32  27  80 W17       30.07F VSB<1/4 WCI  21
BERTHOUD PASS  HAZE      23  14  68 NW10G22   30.09S VSB 1/4 WCI  12
COTTONWOOD PAS CLOUDY    39  30  70 N3        30.02S
GUNNISON       PTCLDY    41  34  75 W8        30.02S
KREMMLING      CLOUDY    37  36  93 E3        30.00S
LEADVILLE      LGT SNOW  32  31  96 CALM      30.01F FOG
MONARCH PASS   FOG       28  27  93 MISG      30.18S VSB<1/4
SALIDA         CLOUDY    47  35  61 SW13G20   30.02S
SUNLIGHT       SNOW      32  32 100 CALM      30.10S VSB 1/4
WILKERSON PASS LGT SNOW  32  30  93 SW3       30.08F
$$

COZ069>075-250700-
...SAN LUIS VALLEY/SANGRE DE CRISTO MOUNTAINS...

CITY           SKY/WX    TMP DP  RH WIND       PRES   REMARKS
ALAMOSA        PTCLDY    36  34  92 S6        29.98S
LA VETA PASS   MOCLDY   N/A N/A N/A MISG      30.06S
SAGUACHE       MOCLDY    41  36  81 CALM      30.00S
$$

COZ035-036-038>040-250700-
...NORTHERN COLORADO FRONT RANGE...

CITY           SKY/WX    TMP DP  RH WIND       PRES   REMARKS
DENVER INTL AP MOCLDY    47  44  90 CALM      29.89S
DMNS CITY PARK   N/A     48  40  74 W3        29.90S
AURORA         NOT AVBL
FRONT RANGE AP MOCLDY    46  45  93 CALM      29.90
ERIE MUNI ARPT MOCLDY    46  43  90 CALM      29.89S
BOULDER MUN AP PTCLDY    48  43  81 SW6       29.88F
CENTENNIAL     MOCLDY    46  41  82 N5        29.91S
BROOMFIELD     MOCLDY    46  43  87 W7        29.90S
FORT COLLINS   MOCLDY    48  43  81 CALM      29.89S
LONGMONT       MOCLDY    48  45  88 CALM      29.90S
$$

COZ041-046-047-076>085-087-088-250700-
...PIKES PEAK/PALMER DIVIDE AND SOUTHERN FOOTHILLS...

CITY           SKY/WX    TMP DP  RH WIND       PRES   REMARKS
COLO. SPRINGS  MOCLDY    47  40  76 N6        29.92R
A. F. ACADEMY  NOT AVBL
ELLICOTT       NOT AVBL
FALCON         MOCLDY    42  39  89 N3        29.94S
FORT CARSON    NOT AVBL
LIMON          CLOUDY    43  42  97 NW5       29.88S
MONUMENT HILL  NOT AVBL
TRINIDAD       PTCLDY    47  39  74 CALM      29.90R
$$

COZ042>045-048>051-090-091-250700-
...NORTHEAST COLORADO...

CITY           SKY/WX    TMP DP  RH WIND       PRES   REMARKS
GREELEY ARPT   CLOUDY    48  43  81 CALM      29.87F
AKRON          CLOUDY    46  45  96 NW8       29.84S
BURLINGTON     CLOUDY    51  48  89 SE7       29.85R
WRAY           CLOUDY   N/A N/A N/A W7        29.80F
STERLING       CLOUDY    52  48  87 NE5       29.82S
HOLYOKE        NOT AVBL
FORT MORGAN    CLOUDY    50  45  85 CALM      29.86R
$$

COZ086-089-092>099-250700-
...SOUTHEAST COLORADO...

CITY           SKY/WX    TMP DP  RH WIND       PRES   REMARKS
PUEBLO         PTCLDY    50  46  86 N6        29.85R
LA JUNTA       MOCLDY    51  48  89 S3        29.83F
LAMAR          PTCLDY    47  46  97 S3        29.81S
SPRINGFIELD      N/A     46  43  89 W5        29.82F
$$



USA.gov is the U.S. government's official web portal to all federal, state and local government web resources and services.